BOCF13 EGNX-KMIA

Flight info

Callsign BOCF13
Flight time N/A
Altitude 30000
Route TNT Q4 WAL/N0479F300 L10 PENIL M144 BAGSO DCT RINUS/N0481F320 DCT MALOT/M083F320 NATE RIKAL/N0476F340 N572A TOPPS DCT HTO DCT BEADS DCT SWL DCT SKARP AR22 HOAGG BNFSH3
Aircraft B77L/H-SDE1E2E3FGHIJ2J3J4J5M1RWXY/LB1D1

Departure

Time 2026-05-05 10:35
Airport East Midlands Airport (EGNX)

Arrival

Time N/A
Airport Miami International Airport (KMIA)
Time Latitude Longitude Altitude Speed Heading
2026-05-05 10:27 52.82724 -1.35216 305 ft 0 kts 178°
2026-05-05 10:27 52.82727 -1.35216 305 ft 4 kts 178°
2026-05-05 10:28 52.82753 -1.35217 305 ft 4 kts 179°
2026-05-05 10:28 52.82780 -1.35217 305 ft 4 kts 183°
2026-05-05 10:28 52.82801 -1.35213 305 ft 2 kts 198°
2026-05-05 10:28 52.82812 -1.35205 305 ft 2 kts 226°
2026-05-05 10:29 52.82819 -1.35190 305 ft 2 kts 253°
2026-05-05 10:29 52.82821 -1.35172 307 ft 2 kts 264°
2026-05-05 10:29 52.82822 -1.35155 305 ft 2 kts 266°
2026-05-05 10:29 52.82822 -1.35147 305 ft 0 kts 266°
2026-05-05 10:32 52.82822 -1.35195 305 ft 8 kts 274°
2026-05-05 10:32 52.82844 -1.35247 308 ft 5 kts 331°
2026-05-05 10:32 52.82878 -1.35232 309 ft 5 kts 45°
2026-05-05 10:33 52.82891 -1.35174 308 ft 5 kts 80°
2026-05-05 10:33 52.82893 -1.35103 308 ft 9 kts 87°
2026-05-05 10:33 52.82901 -1.34993 308 ft 10 kts 68°
2026-05-05 10:33 52.82958 -1.34939 310 ft 10 kts 10°
2026-05-05 10:34 52.83042 -1.34936 309 ft 8 kts
2026-05-05 10:34 52.83062 -1.34882 308 ft 3 kts 85°
2026-05-05 10:34 52.83065 -1.34782 307 ft 22 kts 88°
2026-05-05 10:34 52.83077 -1.34081 308 ft 102 kts 88°
2026-05-05 10:35 52.83107 -1.32474 305 ft 176 kts 88°
2026-05-05 10:35 52.83142 -1.30254 726 ft 195 kts 90°
2026-05-05 10:35 52.83065 -1.28016 1527 ft 197 kts 94°
2026-05-05 10:35 52.82941 -1.25754 2157 ft 202 kts 84°
2026-05-05 10:36 52.83483 -1.23598 2274 ft 213 kts 41°
2026-05-05 10:36 52.84826 -1.22451 2486 ft 229 kts
2026-05-05 10:36 52.86405 -1.22876 2909 ft 239 kts 330°
2026-05-05 10:36 52.87593 -1.24838 3372 ft 249 kts 304°
2026-05-05 10:37 52.88558 -1.27273 3925 ft 256 kts 306°
2026-05-05 10:37 52.89579 -1.29718 4653 ft 259 kts 306°
2026-05-05 10:37 52.90621 -1.32163 5383 ft 261 kts 306°
2026-05-05 10:37 52.91676 -1.34636 5937 ft 264 kts 306°
2026-05-05 10:38 52.92742 -1.37130 6022 ft 268 kts 306°
2026-05-05 10:38 52.93823 -1.39653 6029 ft 268 kts 306°
2026-05-05 10:38 52.94898 -1.42157 6011 ft 266 kts 306°
2026-05-05 10:38 52.95968 -1.44647 6025 ft 264 kts 306°
2026-05-05 10:39 52.97033 -1.47127 6028 ft 264 kts 306°
2026-05-05 10:39 52.98093 -1.49608 6037 ft 263 kts 306°
2026-05-05 10:39 52.99143 -1.52100 6038 ft 264 kts 306°
2026-05-05 10:39 53.00193 -1.54606 6032 ft 264 kts 306°
2026-05-05 10:40 53.01246 -1.57110 6026 ft 264 kts 306°
2026-05-05 10:40 53.02297 -1.59613 6033 ft 265 kts 305°
2026-05-05 10:40 53.03350 -1.62125 6027 ft 265 kts 306°
2026-05-05 10:40 53.04404 -1.64637 6032 ft 265 kts 305°
2026-05-05 10:41 53.05422 -1.67185 6024 ft 263 kts 297°
2026-05-05 10:41 53.06061 -1.70016 6404 ft 262 kts 287°
2026-05-05 10:41 53.06551 -1.72979 6988 ft 269 kts 285°
2026-05-05 10:41 53.07030 -1.76018 7631 ft 274 kts 285°
2026-05-05 10:42 53.08019 -1.82171 9021 ft 277 kts 286°
2026-05-05 10:42 53.08530 -1.85288 9616 ft 281 kts 286°
2026-05-05 10:42 53.09051 -1.88423 10278 ft 282 kts 286°
2026-05-05 10:43 53.09588 -1.91645 10624 ft 299 kts 286°
2026-05-05 10:43 53.10165 -1.95092 10803 ft 320 kts 286°
2026-05-05 10:43 53.10781 -1.98776 10973 ft 341 kts 285°
2026-05-05 10:43 53.11435 -2.02686 11275 ft 358 kts 285°
2026-05-05 10:44 53.12111 -2.06731 11810 ft 367 kts 285°
2026-05-05 10:44 53.12790 -2.10802 12484 ft 371 kts 285°
2026-05-05 10:44 53.13480 -2.14952 13225 ft 374 kts 285°
2026-05-05 10:44 53.14216 -2.19128 13928 ft 377 kts 289°
2026-05-05 10:45 53.15216 -2.23183 14587 ft 381 kts 295°
2026-05-05 10:45 53.16421 -2.27148 15215 ft 385 kts 296°
2026-05-05 10:45 53.17638 -2.31156 15840 ft 389 kts 296°
2026-05-05 10:45 53.18858 -2.35208 16476 ft 392 kts 296°
2026-05-05 10:46 53.20079 -2.39294 17084 ft 396 kts 295°
2026-05-05 10:46 53.21307 -2.43418 17645 ft 399 kts 295°
2026-05-05 10:46 53.22545 -2.47592 18213 ft 403 kts 295°
2026-05-05 10:46 53.23793 -2.51814 18756 ft 407 kts 295°
2026-05-05 10:47 53.25050 -2.56074 19293 ft 411 kts 295°
2026-05-05 10:47 53.26313 -2.60359 19826 ft 414 kts 295°
2026-05-05 10:47 53.27587 -2.64688 20374 ft 416 kts 295°
2026-05-05 10:47 53.28867 -2.69044 20897 ft 419 kts 295°
2026-05-05 10:48 53.30147 -2.73455 21384 ft 422 kts 293°
2026-05-05 10:48 53.31253 -2.78017 21825 ft 425 kts 289°
2026-05-05 10:48 53.32294 -2.82669 22287 ft 429 kts 289°
2026-05-05 10:48 53.33341 -2.87356 22754 ft 432 kts 289°
2026-05-05 10:49 53.34400 -2.92072 23218 ft 435 kts 289°
2026-05-05 10:49 53.35123 -2.95279 23526 ft 436 kts 289°
2026-05-05 10:49 53.36200 -3.00050 23978 ft 439 kts 289°
2026-05-05 10:49 53.37279 -3.04836 24400 ft 442 kts 289°
2026-05-05 10:50 53.38391 -3.09666 24826 ft 445 kts 292°
2026-05-05 10:50 53.39752 -3.14350 25243 ft 449 kts 297°
2026-05-05 10:50 53.41378 -3.18765 25660 ft 453 kts 303°
2026-05-05 10:50 53.43227 -3.23049 26075 ft 455 kts 304°
2026-05-05 10:51 53.45093 -3.27349 26466 ft 457 kts 304°
2026-05-05 10:51 53.46962 -3.31688 26846 ft 460 kts 304°
2026-05-05 10:51 53.48832 -3.36065 27227 ft 462 kts 304°
2026-05-05 10:51 53.50702 -3.40472 27594 ft 464 kts 304°
2026-05-05 10:52 53.52575 -3.44908 27957 ft 466 kts 304°
2026-05-05 10:52 53.54452 -3.49364 28306 ft 468 kts 304°
2026-05-05 10:52 53.56336 -3.53842 28635 ft 470 kts 304°
2026-05-05 10:52 53.58229 -3.58346 28951 ft 472 kts 303°
2026-05-05 10:53 53.59961 -3.63043 29237 ft 473 kts 295°
2026-05-05 10:53 53.61183 -3.68165 29518 ft 472 kts 285°
2026-05-05 10:53 53.61958 -3.73530 29900 ft 470 kts 278°
2026-05-05 10:53 53.62263 -3.79019 30025 ft 473 kts 272°
2026-05-05 10:54 53.62414 -3.84558 30057 ft 472 kts 272°
2026-05-05 10:54 53.62832 -3.95531 30052 ft 467 kts 273°
2026-05-05 10:55 53.63277 -4.06437 30067 ft 467 kts 273°
2026-05-05 10:55 53.63692 -4.17356 30066 ft 467 kts 273°
2026-05-05 10:56 53.64095 -4.28221 30064 ft 468 kts 273°
2026-05-05 10:56 53.64493 -4.39244 30070 ft 469 kts 273°
2026-05-05 10:57 53.64875 -4.50225 30076 ft 469 kts 272°
2026-05-05 10:57 53.65248 -4.61146 30074 ft 470 kts 272°
2026-05-05 10:58 53.65616 -4.72161 30074 ft 471 kts 272°
2026-05-05 10:58 53.65978 -4.83250 30075 ft 471 kts 272°
2026-05-05 10:59 53.66338 -4.94264 30074 ft 471 kts 272°
2026-05-05 10:59 53.66699 -5.05215 30074 ft 471 kts 272°
2026-05-05 11:00 53.67049 -5.16230 30079 ft 470 kts 272°
2026-05-05 11:00 53.67369 -5.27230 30084 ft 469 kts 272°
2026-05-05 11:01 53.67679 -5.38247 30471 ft 470 kts 272°
2026-05-05 11:01 53.67831 -5.43724 30942 ft 466 kts 272°
2026-05-05 11:01 53.67977 -5.49165 31373 ft 464 kts 271°
2026-05-05 11:01 53.68009 -5.54597 31732 ft 462 kts 269°
2026-05-05 11:02 53.67968 -5.60010 32003 ft 462 kts 268°
2026-05-05 11:02 53.67843 -5.70874 32083 ft 462 kts 268°
2026-05-05 11:03 53.67717 -5.81692 32074 ft 459 kts 268°
2026-05-05 11:03 53.67596 -5.92420 32083 ft 457 kts 268°
2026-05-05 11:04 53.67472 -6.03117 32084 ft 456 kts 268°
2026-05-05 11:04 53.67339 -6.13814 32085 ft 456 kts 268°
2026-05-05 11:05 53.67196 -6.24522 32084 ft 457 kts 268°
2026-05-05 11:05 53.67042 -6.35258 32086 ft 459 kts 268°
2026-05-05 11:06 53.66879 -6.46028 32077 ft 461 kts 268°
2026-05-05 11:06 53.66705 -6.56846 32080 ft 462 kts 268°
2026-05-05 11:07 53.66521 -6.67695 32085 ft 464 kts 268°
2026-05-05 11:07 53.66328 -6.78502 32083 ft 465 kts 268°
2026-05-05 11:08 53.66123 -6.89404 32083 ft 466 kts 268°
2026-05-05 11:08 53.65907 -7.00317 32084 ft 466 kts 268°
2026-05-05 11:09 53.65683 -7.11239 32083 ft 466 kts 268°
2026-05-05 11:09 53.65448 -7.22158 32089 ft 466 kts 268°
2026-05-05 11:10 53.65203 -7.33053 32093 ft 465 kts 268°
2026-05-05 11:10 53.64950 -7.43927 32098 ft 464 kts 268°
2026-05-05 11:11 53.64687 -7.54772 32101 ft 462 kts 267°
2026-05-05 11:11 53.64417 -7.65580 32101 ft 461 kts 267°
2026-05-05 11:12 53.63950 -7.76341 32104 ft 460 kts 264°
2026-05-05 11:12 53.63276 -7.87035 32110 ft 459 kts 264°
2026-05-05 11:13 53.62601 -7.97716 32099 ft 458 kts 264°
2026-05-05 11:13 53.61953 -8.08388 32100 ft 458 kts 264°
2026-05-05 11:14 53.61310 -8.19068 32110 ft 458 kts 264°
2026-05-05 11:14 53.60660 -8.29742 32100 ft 459 kts 264°
2026-05-05 11:15 53.60000 -8.40421 32106 ft 459 kts 264°
2026-05-05 11:15 53.59333 -8.51053 32109 ft 460 kts 264°
2026-05-05 11:16 53.58650 -8.61767 32107 ft 461 kts 264°
2026-05-05 11:16 53.57955 -8.72511 32122 ft 462 kts 264°
2026-05-05 11:17 53.57251 -8.83247 32119 ft 463 kts 264°
2026-05-05 11:17 53.56533 -8.94037 32105 ft 464 kts 264°
2026-05-05 11:18 53.55805 -9.04830 32105 ft 465 kts 264°
2026-05-05 11:18 53.55066 -9.15646 32105 ft 466 kts 264°
2026-05-05 11:19 53.54317 -9.26462 32104 ft 466 kts 263°
2026-05-05 11:19 53.53557 -9.37284 32104 ft 466 kts 263°
2026-05-05 11:20 53.52789 -9.48101 32113 ft 466 kts 263°
2026-05-05 11:20 53.52009 -9.58910 32114 ft 466 kts 263°
2026-05-05 11:21 53.51221 -9.69697 32107 ft 465 kts 263°
2026-05-05 11:21 53.50424 -9.80490 32119 ft 465 kts 263°
2026-05-05 11:22 53.49619 -9.91254 32115 ft 465 kts 263°
2026-05-05 11:22 53.48802 -10.02030 32104 ft 465 kts 263°
2026-05-05 11:23 53.47977 -10.12795 32111 ft 464 kts 263°
2026-05-05 11:23 53.47142 -10.23534 32114 ft 464 kts 263°
2026-05-05 11:24 53.46305 -10.34200 32102 ft 464 kts 263°
2026-05-05 11:24 53.45455 -10.44925 32109 ft 464 kts 263°
2026-05-05 11:25 53.44592 -10.55647 32102 ft 464 kts 263°
2026-05-05 11:25 53.43719 -10.66377 32120 ft 464 kts 263°
2026-05-05 11:26 53.42836 -10.77106 32111 ft 465 kts 263°
2026-05-05 11:26 53.41945 -10.87830 32126 ft 464 kts 263°
2026-05-05 11:27 53.41042 -10.98549 32118 ft 465 kts 263°
2026-05-05 11:27 53.40130 -11.09280 32125 ft 465 kts 263°
2026-05-05 11:28 53.39208 -11.20004 32123 ft 465 kts 263°
2026-05-05 11:28 53.38275 -11.30739 32125 ft 466 kts 262°
2026-05-05 11:29 53.37333 -11.41465 32111 ft 466 kts 262°
2026-05-05 11:29 53.36381 -11.52179 32117 ft 465 kts 262°
2026-05-05 11:30 53.35421 -11.62881 32118 ft 465 kts 262°
2026-05-05 11:30 53.34452 -11.73570 32113 ft 464 kts 262°
2026-05-05 11:31 53.33473 -11.84253 32114 ft 464 kts 262°
2026-05-05 11:31 53.32487 -11.94921 32114 ft 464 kts 262°
2026-05-05 11:32 53.31491 -12.05570 32119 ft 463 kts 262°
2026-05-05 11:32 53.30488 -12.16205 32118 ft 463 kts 262°
2026-05-05 11:33 53.29477 -12.26826 32128 ft 463 kts 262°
2026-05-05 11:33 53.28452 -12.37454 32114 ft 463 kts 262°
2026-05-05 11:34 53.27418 -12.48086 32123 ft 464 kts 262°
2026-05-05 11:34 53.26376 -12.58712 32123 ft 464 kts 262°
2026-05-05 11:35 53.25323 -12.69336 32120 ft 464 kts 262°
2026-05-05 11:35 53.24260 -12.79973 32111 ft 464 kts 262°
2026-05-05 11:36 53.23369 -12.88809 32117 ft 465 kts 262°
2026-05-05 11:36 53.22287 -12.99443 32121 ft 465 kts 262°
2026-05-05 11:37 53.21196 -13.10070 32122 ft 465 kts 262°
2026-05-05 11:37 53.20095 -13.20685 32111 ft 464 kts 262°
2026-05-05 11:38 53.18987 -13.31295 32116 ft 464 kts 262°
2026-05-05 11:38 53.17869 -13.41889 32125 ft 464 kts 262°
2026-05-05 11:39 53.16744 -13.52460 32116 ft 463 kts 262°
2026-05-05 11:39 53.15610 -13.63030 32120 ft 463 kts 261°
2026-05-05 11:40 53.14473 -13.73516 32123 ft 463 kts 261°
2026-05-05 11:40 53.13313 -13.84136 32132 ft 463 kts 261°
2026-05-05 11:41 53.12159 -13.94605 32124 ft 463 kts 261°
2026-05-05 11:41 53.10988 -14.05145 32131 ft 463 kts 261°
2026-05-05 11:42 53.09806 -14.15687 32126 ft 463 kts 261°
2026-05-05 11:42 53.08616 -14.26213 32127 ft 463 kts 261°
2026-05-05 11:43 53.07419 -14.36721 32127 ft 462 kts 261°
2026-05-05 11:43 53.06212 -14.47228 32137 ft 462 kts 261°
2026-05-05 11:44 53.04996 -14.57722 32124 ft 462 kts 261°
2026-05-05 11:44 53.03772 -14.68198 32125 ft 462 kts 261°
2026-05-05 11:45 53.02540 -14.78681 32135 ft 462 kts 261°
2026-05-05 11:45 53.01299 -14.89150 32133 ft 462 kts 260°
2026-05-05 11:46 53.00755 -14.99682 32122 ft 457 kts 276°
2026-05-05 11:46 53.02094 -15.09947 32122 ft 456 kts 291°
2026-05-05 11:47 53.04363 -15.19782 32115 ft 457 kts 291°
2026-05-05 11:47 53.06624 -15.29658 32119 ft 457 kts 291°
2026-05-05 11:48 53.09937 -15.44476 32116 ft 458 kts 290°
2026-05-05 11:48 53.12134 -15.54427 32113 ft 458 kts 290°
2026-05-05 11:49 53.14320 -15.64385 32123 ft 458 kts 290°
2026-05-05 11:49 53.16497 -15.74350 32125 ft 458 kts 290°
2026-05-05 11:50 53.18663 -15.84310 32119 ft 457 kts 290°
2026-05-05 11:50 53.20824 -15.94282 32123 ft 457 kts 290°
2026-05-05 11:51 53.22971 -16.04247 32108 ft 456 kts 289°
2026-05-05 11:51 53.25111 -16.14225 32120 ft 456 kts 289°
2026-05-05 11:52 53.27237 -16.24194 32123 ft 456 kts 289°
2026-05-05 11:52 53.29357 -16.34173 32122 ft 455 kts 289°
2026-05-05 11:53 53.31465 -16.44149 32115 ft 455 kts 289°
2026-05-05 11:53 53.33563 -16.54132 32123 ft 455 kts 289°
2026-05-05 11:54 53.35652 -16.64117 32124 ft 455 kts 289°
2026-05-05 11:54 53.37735 -16.74128 32133 ft 455 kts 289°
2026-05-05 11:55 53.39811 -16.84150 32124 ft 455 kts 289°
2026-05-05 11:55 53.41879 -16.94183 32134 ft 455 kts 288°
2026-05-05 11:56 53.43938 -17.04221 32135 ft 455 kts 288°
2026-05-05 11:56 53.45976 -17.14204 32134 ft 455 kts 288°
2026-05-05 11:57 53.48014 -17.24260 32134 ft 455 kts 288°
2026-05-05 11:57 53.50047 -17.34327 32129 ft 454 kts 288°
2026-05-05 11:58 53.52068 -17.44380 32134 ft 454 kts 288°
2026-05-05 11:58 53.54077 -17.54431 32137 ft 454 kts 288°
2026-05-05 11:59 53.56077 -17.64487 32134 ft 453 kts 287°
2026-05-05 11:59 53.58066 -17.74546 32131 ft 453 kts 287°
2026-05-05 12:00 53.60044 -17.84596 32132 ft 452 kts 287°
2026-05-05 12:00 53.62010 -17.94640 32131 ft 452 kts 287°
2026-05-05 12:01 53.63969 -18.04695 32140 ft 452 kts 287°
2026-05-05 12:01 53.65917 -18.14752 32136 ft 451 kts 287°
2026-05-05 12:02 53.67857 -18.24823 32140 ft 452 kts 287°
2026-05-05 12:02 53.69792 -18.34909 32135 ft 452 kts 286°
2026-05-05 12:03 53.71717 -18.45004 32138 ft 452 kts 286°
2026-05-05 12:03 53.73638 -18.55131 32139 ft 453 kts 286°
2026-05-05 12:04 53.75554 -18.65281 32135 ft 454 kts 286°
2026-05-05 12:04 53.77463 -18.75459 32140 ft 455 kts 286°
2026-05-05 12:05 53.79369 -18.85676 32144 ft 455 kts 285°
2026-05-05 12:05 53.81256 -18.95840 32142 ft 456 kts 285°
2026-05-05 12:06 53.83150 -19.06093 32135 ft 457 kts 285°
2026-05-05 12:06 53.85037 -19.16376 32138 ft 458 kts 285°
2026-05-05 12:07 53.86918 -19.26687 32140 ft 459 kts 285°
2026-05-05 12:07 53.88795 -19.37022 32138 ft 459 kts 285°
2026-05-05 12:08 53.90667 -19.47391 32146 ft 460 kts 285°
2026-05-05 12:08 53.92532 -19.57781 32149 ft 461 kts 285°
2026-05-05 12:09 53.94389 -19.68190 32147 ft 461 kts 285°
2026-05-05 12:09 53.96240 -19.78620 32149 ft 461 kts 285°
2026-05-05 12:10 53.98084 -19.89060 32147 ft 461 kts 285°
2026-05-05 12:10 53.99790 -19.99561 32147 ft 460 kts 279°
2026-05-05 12:11 54.00492 -20.10340 32138 ft 459 kts 272°
2026-05-05 12:11 54.00883 -20.21178 32146 ft 459 kts 272°
2026-05-05 12:12 54.01286 -20.32008 32151 ft 459 kts 272°
2026-05-05 12:12 54.01696 -20.42820 32196 ft 458 kts 272°
2026-05-05 12:13 54.02102 -20.53640 32199 ft 459 kts 272°
2026-05-05 12:13 54.02501 -20.64490 32203 ft 460 kts 272°
2026-05-05 12:14 54.02890 -20.75352 32204 ft 461 kts 272°
2026-05-05 12:14 54.03270 -20.86256 32206 ft 462 kts 272°
2026-05-05 12:15 54.03641 -20.97179 32196 ft 463 kts 273°
2026-05-05 12:15 54.04002 -21.08130 32198 ft 464 kts 273°
2026-05-05 12:16 54.04355 -21.19107 32218 ft 465 kts 273°
2026-05-05 12:16 54.04697 -21.30106 32213 ft 466 kts 273°
2026-05-05 12:17 54.05032 -21.41147 32212 ft 467 kts 273°
2026-05-05 12:17 54.05354 -21.52131 32212 ft 468 kts 273°
2026-05-05 12:18 54.05670 -21.63202 32213 ft 469 kts 272°
2026-05-05 12:18 54.05975 -21.74316 32211 ft 470 kts 272°
2026-05-05 12:19 54.06271 -21.85444 32212 ft 471 kts 272°
2026-05-05 12:19 54.06556 -21.96584 32210 ft 471 kts 272°
2026-05-05 12:20 54.06831 -22.07724 32209 ft 471 kts 272°
2026-05-05 12:20 54.07097 -22.18861 32216 ft 471 kts 272°
2026-05-05 12:21 54.07352 -22.29998 32211 ft 470 kts 272°
2026-05-05 12:21 54.07595 -22.41109 32214 ft 470 kts 272°
2026-05-05 12:22 54.07829 -22.52231 32221 ft 469 kts 272°
2026-05-05 12:22 54.08053 -22.63331 32219 ft 469 kts 272°
2026-05-05 12:23 54.08265 -22.74425 32231 ft 469 kts 272°
2026-05-05 12:23 54.08467 -22.85523 32237 ft 469 kts 272°
2026-05-05 12:24 54.08628 -22.94747 32241 ft 469 kts 273°
2026-05-05 12:24 54.08812 -23.05862 32240 ft 470 kts 273°
2026-05-05 12:25 54.08986 -23.16990 32241 ft 470 kts 273°
2026-05-05 12:25 54.09150 -23.28126 32239 ft 470 kts 273°
2026-05-05 12:26 54.09304 -23.39267 32240 ft 471 kts 273°
2026-05-05 12:26 54.09448 -23.50420 32240 ft 471 kts 273°
2026-05-05 12:27 54.09582 -23.61578 32241 ft 471 kts 273°
2026-05-05 12:27 54.09704 -23.72753 32255 ft 472 kts 273°
2026-05-05 12:28 54.09818 -23.83932 32260 ft 472 kts 273°
2026-05-05 12:28 54.09920 -23.95106 32271 ft 472 kts 273°
2026-05-05 12:29 54.10012 -24.06297 32277 ft 472 kts 273°
2026-05-05 12:29 54.10093 -24.17475 32276 ft 472 kts 273°
2026-05-05 12:30 54.10164 -24.28664 32276 ft 472 kts 273°
2026-05-05 12:30 54.10225 -24.39852 32276 ft 472 kts 273°
2026-05-05 12:31 54.10276 -24.51039 32284 ft 472 kts 273°
2026-05-05 12:31 54.10316 -24.62140 32287 ft 472 kts 273°
2026-05-05 12:32 54.10346 -24.73315 32285 ft 471 kts 272°
2026-05-05 12:32 54.10366 -24.84481 32286 ft 471 kts 272°
2026-05-05 12:33 54.10375 -24.95634 32287 ft 471 kts 272°
2026-05-05 12:33 54.10374 -25.06794 32284 ft 471 kts 272°
2026-05-05 12:34 54.10363 -25.17950 32287 ft 470 kts 272°
2026-05-05 12:34 54.10341 -25.29088 32286 ft 470 kts 272°
2026-05-05 12:35 54.10309 -25.40215 32289 ft 469 kts 272°
2026-05-05 12:35 54.10265 -25.51336 32295 ft 469 kts 272°
2026-05-05 12:36 54.10215 -25.62442 32294 ft 469 kts 272°
2026-05-05 12:36 54.10152 -25.73535 32296 ft 468 kts 272°
2026-05-05 12:37 54.10079 -25.84622 32295 ft 468 kts 272°
2026-05-05 12:37 54.09996 -25.95700 32383 ft 466 kts 272°
2026-05-05 12:38 54.09905 -26.06751 32386 ft 467 kts 272°
2026-05-05 12:38 54.09802 -26.17818 32387 ft 468 kts 272°
2026-05-05 12:39 54.09688 -26.28885 32386 ft 469 kts 271°
2026-05-05 12:39 54.09564 -26.39999 32387 ft 470 kts 272°
2026-05-05 12:40 54.09430 -26.51131 32386 ft 471 kts 272°
2026-05-05 12:40 54.09285 -26.62296 32386 ft 471 kts 272°
2026-05-05 12:41 54.09129 -26.73461 32392 ft 472 kts 272°
2026-05-05 12:41 54.08963 -26.84655 32396 ft 473 kts 272°
2026-05-05 12:42 54.08786 -26.95852 32395 ft 474 kts 272°
2026-05-05 12:42 54.08600 -27.07013 32396 ft 475 kts 272°
2026-05-05 12:43 54.08402 -27.18265 32396 ft 476 kts 272°
2026-05-05 12:43 54.08193 -27.29534 32396 ft 476 kts 272°
2026-05-05 12:44 54.07973 -27.40817 32394 ft 477 kts 272°
2026-05-05 12:44 54.07742 -27.52121 32397 ft 478 kts 272°
2026-05-05 12:45 54.07499 -27.63438 32405 ft 478 kts 272°
2026-05-05 12:45 54.07245 -27.74770 32405 ft 479 kts 272°
2026-05-05 12:46 54.06982 -27.86093 32404 ft 479 kts 272°
2026-05-05 12:46 54.06708 -27.97421 32410 ft 479 kts 272°
2026-05-05 12:47 54.06424 -28.08732 32414 ft 478 kts 272°
2026-05-05 12:47 54.06129 -28.20051 32414 ft 478 kts 272°
2026-05-05 12:48 54.05823 -28.31352 32413 ft 478 kts 272°
2026-05-05 12:48 54.05506 -28.42658 32414 ft 478 kts 272°
2026-05-05 12:49 54.05179 -28.53950 32413 ft 478 kts 272°
2026-05-05 12:49 54.04842 -28.65267 32415 ft 478 kts 272°
2026-05-05 12:50 54.04494 -28.76575 32414 ft 479 kts 272°
2026-05-05 12:50 54.04135 -28.87905 32414 ft 480 kts 272°
2026-05-05 12:51 54.03762 -28.99240 32414 ft 480 kts 272°
2026-05-05 12:51 54.03382 -29.10581 32417 ft 480 kts 272°
2026-05-05 12:52 54.02993 -29.21852 32413 ft 481 kts 272°
2026-05-05 12:52 54.02587 -29.33277 32414 ft 481 kts 272°
2026-05-05 12:53 54.02176 -29.44546 32413 ft 481 kts 272°
2026-05-05 12:53 54.01751 -29.55890 32414 ft 481 kts 272°
2026-05-05 12:54 54.01094 -29.72908 32415 ft 481 kts 272°
2026-05-05 12:55 54.00643 -29.84254 32413 ft 481 kts 272°
2026-05-05 12:55 54.00183 -29.95604 32414 ft 481 kts 272°
2026-05-05 12:56 54.00189 -30.06868 32428 ft 473 kts 280°
2026-05-05 12:56 54.00683 -30.18032 32422 ft 474 kts 280°
2026-05-05 12:57 54.01162 -30.29198 32424 ft 474 kts 280°
2026-05-05 12:57 54.01610 -30.40386 32427 ft 474 kts 279°
2026-05-05 12:58 54.02033 -30.51584 32422 ft 475 kts 279°
2026-05-05 12:58 54.02444 -30.62787 32424 ft 475 kts 279°
2026-05-05 12:59 54.02845 -30.73995 32423 ft 475 kts 279°
2026-05-05 12:59 54.03236 -30.85186 32423 ft 474 kts 278°
2026-05-05 13:00 54.03802 -31.01979 32422 ft 473 kts 278°
2026-05-05 13:01 54.04522 -31.24353 32378 ft 474 kts 277°
2026-05-05 13:01 54.04868 -31.35572 32341 ft 475 kts 277°
2026-05-05 13:02 54.05202 -31.46780 32336 ft 474 kts 277°
2026-05-05 13:02 54.05524 -31.57978 32330 ft 474 kts 277°
2026-05-05 13:03 54.05835 -31.69105 32333 ft 473 kts 277°
2026-05-05 13:03 54.06137 -31.80296 32331 ft 473 kts 276°
2026-05-05 13:04 54.06428 -31.91496 32325 ft 474 kts 276°
2026-05-05 13:04 54.06710 -32.02700 32319 ft 474 kts 276°
2026-05-05 13:05 54.06982 -32.13906 32323 ft 474 kts 276°
2026-05-05 13:05 54.07244 -32.25112 32323 ft 474 kts 276°
2026-05-05 13:06 54.07495 -32.36329 32322 ft 474 kts 276°
2026-05-05 13:06 54.07735 -32.47555 32323 ft 474 kts 276°
2026-05-05 13:07 54.07964 -32.58773 32323 ft 474 kts 275°
2026-05-05 13:07 54.08184 -32.70007 32323 ft 475 kts 275°
2026-05-05 13:08 54.08394 -32.81251 32322 ft 475 kts 275°
2026-05-05 13:08 54.08593 -32.92513 32323 ft 476 kts 274°
2026-05-05 13:09 54.08781 -33.03772 32320 ft 476 kts 274°
2026-05-05 13:09 54.08958 -33.15036 32324 ft 476 kts 274°
2026-05-05 13:10 54.09126 -33.26248 32320 ft 477 kts 274°
2026-05-05 13:10 54.09258 -33.35697 32324 ft 477 kts 273°
2026-05-05 13:11 54.09430 -33.48846 32323 ft 478 kts 273°
2026-05-05 13:11 54.09567 -33.60153 32320 ft 478 kts 272°
2026-05-05 13:12 54.09674 -33.69654 32314 ft 478 kts 272°
2026-05-05 13:12 54.09791 -33.80986 32311 ft 479 kts 272°
2026-05-05 13:13 54.09896 -33.92250 32314 ft 479 kts 272°
2026-05-05 13:13 54.09992 -34.03582 32312 ft 479 kts 272°
2026-05-05 13:14 54.10077 -34.14920 32312 ft 478 kts 272°
2026-05-05 13:14 54.10152 -34.26253 32314 ft 478 kts 271°
2026-05-05 13:15 54.10216 -34.37586 32314 ft 478 kts 271°
2026-05-05 13:15 54.10254 -34.48920 32314 ft 479 kts 271°
2026-05-05 13:16 54.10303 -34.60265 32312 ft 479 kts 271°
2026-05-05 13:16 54.10345 -34.71619 32315 ft 479 kts 271°
2026-05-05 13:17 54.10368 -34.82980 32312 ft 480 kts 270°
2026-05-05 13:17 54.10377 -34.94371 32315 ft 481 kts 270°
2026-05-05 13:18 54.10377 -35.05769 32315 ft 482 kts 270°
2026-05-05 13:18 54.10366 -35.17195 32314 ft 482 kts 269°
2026-05-05 13:19 54.10344 -35.28614 32310 ft 483 kts 269°
2026-05-05 13:19 54.10311 -35.40069 32312 ft 483 kts 269°
2026-05-05 13:20 54.10268 -35.51526 32309 ft 484 kts 268°
2026-05-05 13:20 54.10213 -35.63012 32304 ft 485 kts 268°
2026-05-05 13:21 54.10147 -35.74525 32306 ft 486 kts 268°
2026-05-05 13:21 54.10071 -35.86047 32304 ft 487 kts 268°
2026-05-05 13:22 54.09983 -35.97576 32305 ft 487 kts 268°
2026-05-05 13:22 54.09884 -36.09109 32302 ft 487 kts 268°
2026-05-05 13:23 54.09775 -36.20565 32302 ft 487 kts 267°
2026-05-05 13:23 54.09654 -36.32081 32304 ft 486 kts 267°
2026-05-05 13:24 54.09522 -36.43602 32289 ft 487 kts 267°
2026-05-05 13:24 54.09379 -36.55176 32170 ft 489 kts 267°
2026-05-05 13:25 54.09226 -36.66761 32139 ft 490 kts 266°
2026-05-05 13:25 54.09059 -36.78365 32122 ft 490 kts 266°
2026-05-05 13:26 54.08882 -36.89956 32128 ft 490 kts 266°
2026-05-05 13:26 54.08693 -37.01591 32122 ft 492 kts 266°
2026-05-05 13:27 54.08491 -37.13258 32126 ft 494 kts 266°
2026-05-05 13:27 54.08279 -37.24964 32165 ft 495 kts 265°
2026-05-05 13:28 54.08054 -37.36707 32178 ft 497 kts 265°
2026-05-05 13:28 54.07818 -37.48497 32186 ft 500 kts 265°
2026-05-05 13:29 54.07566 -37.60354 32190 ft 502 kts 264°
2026-05-05 13:29 54.07304 -37.72258 32188 ft 504 kts 264°
2026-05-05 13:30 54.07028 -37.84207 32183 ft 506 kts 264°
2026-05-05 13:30 54.06740 -37.96173 32182 ft 506 kts 264°
2026-05-05 13:31 54.06440 -38.08144 32178 ft 506 kts 264°
2026-05-05 13:31 54.06128 -38.20085 32174 ft 505 kts 263°
2026-05-05 13:32 54.05806 -38.32004 32173 ft 504 kts 263°
2026-05-05 13:32 54.05472 -38.43915 32175 ft 503 kts 263°
2026-05-05 13:33 54.05127 -38.55797 32174 ft 503 kts 263°
2026-05-05 13:33 54.04769 -38.67692 32175 ft 504 kts 263°
2026-05-05 13:34 54.04399 -38.79614 32176 ft 505 kts 263°
2026-05-05 13:34 54.04015 -38.91565 32171 ft 507 kts 263°
2026-05-05 13:35 54.03619 -39.03561 32166 ft 509 kts 262°
2026-05-05 13:35 54.03210 -39.15594 32168 ft 511 kts 262°
2026-05-05 13:36 54.02786 -39.27688 32165 ft 513 kts 262°
2026-05-05 13:36 54.02350 -39.39819 32167 ft 515 kts 261°
2026-05-05 13:37 54.01900 -39.51933 32169 ft 518 kts 261°
2026-05-05 13:37 54.01433 -39.64173 32169 ft 520 kts 261°
2026-05-05 13:38 54.00953 -39.76465 32164 ft 522 kts 261°
2026-05-05 13:38 54.00460 -39.88793 32159 ft 523 kts 261°
2026-05-05 13:39 53.99953 -40.01137 32158 ft 523 kts 260°
2026-05-05 13:39 53.99298 -40.13429 32156 ft 522 kts 258°
2026-05-05 13:40 53.98547 -40.25678 32158 ft 520 kts 258°
2026-05-05 13:40 53.97796 -40.37883 32156 ft 519 kts 258°
2026-05-05 13:41 53.97058 -40.50033 32155 ft 517 kts 258°
2026-05-05 13:41 53.96316 -40.62149 32154 ft 515 kts 258°
2026-05-05 13:42 53.95566 -40.74216 32145 ft 513 kts 258°
2026-05-05 13:42 53.94806 -40.86233 32147 ft 511 kts 258°
2026-05-05 13:43 53.94034 -40.98221 32145 ft 510 kts 258°
2026-05-05 13:43 53.93252 -41.10178 32152 ft 510 kts 257°
2026-05-05 13:44 53.92461 -41.22064 32145 ft 511 kts 257°
2026-05-05 13:44 53.91652 -41.34052 32153 ft 512 kts 257°
2026-05-05 13:45 53.90828 -41.46077 32144 ft 514 kts 257°
2026-05-05 13:45 53.89989 -41.58137 32138 ft 516 kts 257°
2026-05-05 13:46 53.89134 -41.70256 32142 ft 519 kts 256°
2026-05-05 13:46 53.88264 -41.82430 32142 ft 521 kts 256°
2026-05-05 13:47 53.87380 -41.94621 32135 ft 523 kts 256°
2026-05-05 13:47 53.86480 -42.06864 32145 ft 523 kts 256°
2026-05-05 13:48 53.85565 -42.19099 32139 ft 523 kts 256°
2026-05-05 13:48 53.84642 -42.31303 32134 ft 522 kts 256°
2026-05-05 13:49 53.83710 -42.43457 32132 ft 519 kts 256°
2026-05-05 13:49 53.82771 -42.55538 32123 ft 516 kts 256°
2026-05-05 13:50 53.81824 -42.67525 32126 ft 512 kts 256°
2026-05-05 13:50 53.80874 -42.79432 32130 ft 509 kts 256°
2026-05-05 13:51 53.79917 -42.91269 32127 ft 506 kts 256°
2026-05-05 13:51 53.78953 -43.03024 32120 ft 504 kts 256°
2026-05-05 13:52 53.77986 -43.14661 32126 ft 502 kts 256°
2026-05-05 13:52 53.77004 -43.26353 32112 ft 502 kts 256°
2026-05-05 13:53 53.76010 -43.38041 32123 ft 503 kts 256°
2026-05-05 13:53 53.75002 -43.49753 32126 ft 505 kts 256°
2026-05-05 13:54 53.73980 -43.61503 32115 ft 506 kts 256°
2026-05-05 13:54 53.72942 -43.73292 32118 ft 508 kts 256°
2026-05-05 13:55 53.71891 -43.85086 32128 ft 509 kts 255°
2026-05-05 13:55 53.70824 -43.96937 32120 ft 511 kts 255°
2026-05-05 13:56 53.69746 -44.08792 32114 ft 511 kts 255°
2026-05-05 13:56 53.68656 -44.20632 32107 ft 511 kts 255°
2026-05-05 13:57 53.67553 -44.32450 32115 ft 509 kts 255°
2026-05-05 13:57 53.66444 -44.44215 32100 ft 507 kts 255°
2026-05-05 13:58 53.65331 -44.55924 32102 ft 504 kts 255°
2026-05-05 13:58 53.64401 -44.65596 32109 ft 502 kts 255°
2026-05-05 13:59 53.62714 -44.82923 32101 ft 497 kts 255°
2026-05-05 14:00 53.61015 -45.00106 32102 ft 494 kts 255°
2026-05-05 14:00 53.59873 -45.11502 32102 ft 493 kts 255°
2026-05-05 14:01 53.58723 -45.22866 32100 ft 493 kts 255°
2026-05-05 14:01 53.57561 -45.34237 32101 ft 493 kts 255°
2026-05-05 14:02 53.56387 -45.45614 32123 ft 494 kts 255°
2026-05-05 14:02 53.55199 -45.57015 32011 ft 497 kts 255°
2026-05-05 14:03 53.53993 -45.68485 31927 ft 498 kts 255°
2026-05-05 14:03 53.52775 -45.79967 31851 ft 500 kts 255°
2026-05-05 14:04 53.51553 -45.91369 31794 ft 500 kts 255°
2026-05-05 14:04 53.50311 -46.02851 31776 ft 499 kts 255°
2026-05-05 14:05 53.49063 -46.14284 31777 ft 497 kts 255°
2026-05-05 14:05 53.47802 -46.25701 31769 ft 496 kts 255°
2026-05-05 14:06 53.46537 -46.37068 31768 ft 495 kts 255°
2026-05-05 14:06 53.45263 -46.48415 31767 ft 494 kts 255°
2026-05-05 14:07 53.43981 -46.59741 31761 ft 494 kts 255°
2026-05-05 14:07 53.42689 -46.71037 31758 ft 493 kts 255°
2026-05-05 14:08 53.41391 -46.82296 31756 ft 492 kts 255°
2026-05-05 14:08 53.40083 -46.93536 31747 ft 491 kts 254°
2026-05-05 14:09 53.38765 -47.04769 31751 ft 491 kts 254°
2026-05-05 14:09 53.37438 -47.15971 31745 ft 491 kts 254°
2026-05-05 14:10 53.36099 -47.27187 31740 ft 491 kts 254°
2026-05-05 14:10 53.34749 -47.38396 31739 ft 491 kts 254°
2026-05-05 14:11 53.33389 -47.49604 31737 ft 492 kts 254°
2026-05-05 14:11 53.32015 -47.60831 31732 ft 493 kts 254°
2026-05-05 14:12 53.30630 -47.72053 31729 ft 493 kts 253°
2026-05-05 14:12 53.29231 -47.83292 31723 ft 494 kts 253°
2026-05-05 14:13 53.27821 -47.94535 31721 ft 494 kts 253°
2026-05-05 14:13 53.26400 -48.05767 31716 ft 494 kts 253°
2026-05-05 14:14 53.24967 -48.16993 31710 ft 494 kts 253°
2026-05-05 14:14 53.23528 -48.28206 31712 ft 494 kts 253°
2026-05-05 14:15 53.22077 -48.39407 31706 ft 493 kts 253°
2026-05-05 14:15 53.20618 -48.50574 31702 ft 492 kts 253°
2026-05-05 14:16 53.19153 -48.61705 31697 ft 491 kts 253°
2026-05-05 14:16 53.17683 -48.72789 31714 ft 489 kts 253°
2026-05-05 14:17 53.16206 -48.83841 31711 ft 488 kts 253°
2026-05-05 14:17 53.14730 -48.94799 31711 ft 488 kts 253°
2026-05-05 14:18 53.13237 -49.05801 31710 ft 487 kts 253°
2026-05-05 14:18 53.12481 -49.11332 31816 ft 491 kts 253°
2026-05-05 14:18 53.11722 -49.16872 32176 ft 490 kts 253°
2026-05-05 14:19 53.10964 -49.22390 32564 ft 488 kts 253°
2026-05-05 14:19 53.10207 -49.27886 32949 ft 487 kts 253°
2026-05-05 14:19 53.09447 -49.33375 33287 ft 486 kts 253°
2026-05-05 14:19 53.08688 -49.38840 33589 ft 486 kts 253°
2026-05-05 14:20 53.07150 -49.49831 33704 ft 489 kts 253°
2026-05-05 14:20 53.05604 -49.60821 33687 ft 486 kts 253°
2026-05-05 14:21 53.04059 -49.71718 33682 ft 483 kts 253°
2026-05-05 14:21 53.02508 -49.82587 33599 ft 483 kts 253°
2026-05-05 14:22 53.00948 -49.93454 33500 ft 484 kts 253°
2026-05-05 14:22 52.99110 -50.04125 33492 ft 478 kts 245°
2026-05-05 14:23 52.96614 -50.14354 33495 ft 478 kts 244°
2026-05-05 14:23 52.94123 -50.24489 33491 ft 478 kts 244°
2026-05-05 14:24 52.91632 -50.34703 33488 ft 478 kts 245°
2026-05-05 14:24 52.89145 -50.44926 33489 ft 479 kts 245°
2026-05-05 14:25 52.86649 -50.55150 33484 ft 479 kts 245°
2026-05-05 14:25 52.84139 -50.65375 33479 ft 479 kts 245°
2026-05-05 14:26 52.81620 -50.75584 33476 ft 480 kts 245°
2026-05-05 14:26 52.79092 -50.85781 33479 ft 479 kts 245°
2026-05-05 14:27 52.76558 -50.95966 33470 ft 479 kts 244°
2026-05-05 14:27 52.74016 -51.06132 33469 ft 479 kts 244°
2026-05-05 14:28 52.71465 -51.16281 33469 ft 478 kts 244°
2026-05-05 14:28 52.68910 -51.26403 33468 ft 478 kts 244°
2026-05-05 14:29 52.66350 -51.36502 33462 ft 478 kts 244°
2026-05-05 14:29 52.63780 -51.46589 33457 ft 477 kts 245°
2026-05-05 14:30 52.61208 -51.56648 33461 ft 476 kts 244°
2026-05-05 14:30 52.58631 -51.66669 33456 ft 476 kts 245°
2026-05-05 14:31 52.56046 -51.76681 33463 ft 475 kts 245°
2026-05-05 14:31 52.53456 -51.86672 33452 ft 475 kts 245°
2026-05-05 14:32 52.50859 -51.96643 33450 ft 474 kts 244°
2026-05-05 14:32 52.48264 -52.06566 33450 ft 473 kts 245°
2026-05-05 14:33 52.45660 -52.16478 33451 ft 473 kts 244°
2026-05-05 14:33 52.43068 -52.26300 33450 ft 472 kts 244°
2026-05-05 14:34 52.40454 -52.36156 33447 ft 472 kts 244°
2026-05-05 14:34 52.37830 -52.46018 33451 ft 472 kts 244°
2026-05-05 14:35 52.35196 -52.55866 33436 ft 473 kts 244°
2026-05-05 14:35 52.32554 -52.65714 33441 ft 473 kts 244°
2026-05-05 14:36 52.29900 -52.75557 33478 ft 473 kts 244°
2026-05-05 14:36 52.27236 -52.85394 33507 ft 474 kts 244°
2026-05-05 14:37 52.24560 -52.95239 33516 ft 475 kts 244°
2026-05-05 14:37 52.21869 -53.05091 33513 ft 476 kts 244°
2026-05-05 14:38 52.19166 -53.14944 33505 ft 477 kts 244°
2026-05-05 14:38 52.16452 -53.24800 33506 ft 477 kts 244°
2026-05-05 14:39 52.13732 -53.34636 33506 ft 476 kts 244°
2026-05-05 14:39 52.11005 -53.44452 33507 ft 476 kts 244°
2026-05-05 14:40 52.08274 -53.54243 33497 ft 475 kts 244°
2026-05-05 14:40 52.05535 -53.64017 33496 ft 474 kts 244°
2026-05-05 14:41 52.02796 -53.73758 33496 ft 473 kts 244°
2026-05-05 14:41 52.00057 -53.83458 33490 ft 473 kts 244°
2026-05-05 14:42 51.97310 -53.93141 33487 ft 472 kts 244°
2026-05-05 14:42 51.94563 -54.02794 33488 ft 471 kts 244°
2026-05-05 14:43 51.91825 -54.12365 33488 ft 471 kts 244°
2026-05-05 14:43 51.89062 -54.21992 33488 ft 471 kts 244°
2026-05-05 14:44 51.86294 -54.31598 33488 ft 471 kts 244°
2026-05-05 14:44 51.83512 -54.41215 33489 ft 471 kts 244°
2026-05-05 14:45 51.80727 -54.50805 33483 ft 471 kts 244°
2026-05-05 14:45 51.77531 -54.60028 33473 ft 470 kts 238°
2026-05-05 14:46 51.74090 -54.69001 33489 ft 469 kts 238°
2026-05-05 14:46 51.71238 -54.76436 33487 ft 469 kts 238°
2026-05-05 14:47 51.67243 -54.86881 33489 ft 467 kts 238°
2026-05-05 14:47 51.64412 -54.94279 33486 ft 467 kts 238°
2026-05-05 14:48 51.61006 -55.03157 33491 ft 465 kts 238°
2026-05-05 14:48 51.57602 -55.11998 33498 ft 465 kts 238°
2026-05-05 14:49 51.54192 -55.20823 33496 ft 464 kts 238°
2026-05-05 14:49 51.50776 -55.29632 33497 ft 465 kts 238°
2026-05-05 14:50 51.47356 -55.38421 33506 ft 464 kts 238°
2026-05-05 14:50 51.43925 -55.47208 33508 ft 465 kts 238°
2026-05-05 14:51 51.40509 -55.55925 33506 ft 465 kts 238°
2026-05-05 14:51 51.37041 -55.64748 33509 ft 465 kts 238°
2026-05-05 14:52 51.33588 -55.73503 33526 ft 465 kts 238°
2026-05-05 14:52 51.30146 -55.82197 33513 ft 466 kts 238°
2026-05-05 14:53 51.26680 -55.90925 33517 ft 466 kts 238°
2026-05-05 14:53 51.23204 -55.99650 33514 ft 466 kts 238°
2026-05-05 14:54 51.19721 -56.08359 33514 ft 466 kts 238°
2026-05-05 14:54 51.16239 -56.17041 33517 ft 465 kts 238°
2026-05-05 14:55 51.12751 -56.25706 33516 ft 464 kts 238°
2026-05-05 14:55 51.09263 -56.34343 33532 ft 463 kts 238°
2026-05-05 14:56 51.05775 -56.42950 33532 ft 463 kts 238°
2026-05-05 14:56 51.02283 -56.51538 33529 ft 462 kts 238°
2026-05-05 14:57 50.98791 -56.60101 33525 ft 461 kts 238°
2026-05-05 14:57 50.95297 -56.68639 33539 ft 461 kts 238°
2026-05-05 14:58 50.91799 -56.77159 33534 ft 461 kts 238°
2026-05-05 14:58 50.88295 -56.85663 33539 ft 461 kts 238°
2026-05-05 14:59 50.84791 -56.94141 33543 ft 460 kts 238°
2026-05-05 14:59 50.81284 -57.02601 33547 ft 460 kts 238°
2026-05-05 15:00 50.78365 -57.09618 33552 ft 459 kts 238°
2026-05-05 15:00 50.74280 -57.19410 33550 ft 459 kts 238°
2026-05-05 15:01 50.70766 -57.27804 33561 ft 458 kts 238°
2026-05-05 15:01 50.67253 -57.36170 33576 ft 457 kts 238°
2026-05-05 15:02 50.63734 -57.44521 33583 ft 457 kts 238°
2026-05-05 15:02 50.60218 -57.52838 33583 ft 455 kts 239°
2026-05-05 15:03 50.56713 -57.61104 33586 ft 453 kts 239°
2026-05-05 15:03 50.53219 -57.69314 33590 ft 451 kts 239°
2026-05-05 15:04 50.49731 -57.77490 33595 ft 450 kts 239°
2026-05-05 15:04 50.46246 -57.85634 33608 ft 449 kts 239°
2026-05-05 15:05 50.41015 -57.97809 33612 ft 448 kts 239°
2026-05-05 15:06 50.37522 -58.05907 33619 ft 449 kts 239°
2026-05-05 15:06 50.34021 -58.13998 33625 ft 449 kts 239°
2026-05-05 15:07 50.30511 -58.22086 33630 ft 450 kts 238°
2026-05-05 15:07 50.26991 -58.30174 33633 ft 450 kts 238°
2026-05-05 15:08 50.23460 -58.38257 33637 ft 451 kts 238°
2026-05-05 15:08 50.19920 -58.46337 33644 ft 451 kts 238°
2026-05-05 15:09 50.16368 -58.54421 33666 ft 451 kts 238°
2026-05-05 15:09 50.12813 -58.62488 33670 ft 452 kts 238°
2026-05-05 15:10 50.09247 -58.70554 33683 ft 452 kts 238°
2026-05-05 15:10 50.05670 -58.78621 33690 ft 453 kts 238°
2026-05-05 15:11 50.02089 -58.86672 33682 ft 453 kts 239°
2026-05-05 15:11 49.98521 -58.94669 33691 ft 453 kts 239°
2026-05-05 15:12 49.94929 -59.02694 33685 ft 452 kts 239°
2026-05-05 15:12 49.91350 -59.10667 33693 ft 450 kts 239°
2026-05-05 15:13 49.87768 -59.18621 33691 ft 449 kts 239°
2026-05-05 15:13 49.84195 -59.26538 33691 ft 448 kts 240°
2026-05-05 15:14 49.80622 -59.34427 33696 ft 448 kts 240°
2026-05-05 15:14 49.77038 -59.42317 33698 ft 448 kts 240°
2026-05-05 15:15 49.73450 -59.50193 33703 ft 448 kts 240°
2026-05-05 15:15 49.69852 -59.58067 33705 ft 449 kts 240°
2026-05-05 15:16 49.66237 -59.65957 33704 ft 450 kts 239°
2026-05-05 15:16 49.62611 -59.73847 33707 ft 451 kts 239°
2026-05-05 15:17 49.58972 -59.81738 33721 ft 452 kts 239°
2026-05-05 15:17 49.55330 -59.89612 33730 ft 452 kts 239°
2026-05-05 15:18 49.51674 -59.97493 33734 ft 452 kts 239°
2026-05-05 15:18 49.48013 -60.05365 33731 ft 452 kts 240°
2026-05-05 15:19 49.44352 -60.13214 33731 ft 452 kts 240°
2026-05-05 15:19 49.40692 -60.21034 33732 ft 451 kts 240°
2026-05-05 15:20 49.37028 -60.28841 33726 ft 450 kts 240°
2026-05-05 15:20 49.33370 -60.36610 33731 ft 448 kts 240°
2026-05-05 15:21 49.29745 -60.44292 33732 ft 447 kts 240°
2026-05-05 15:21 49.26104 -60.51983 33745 ft 446 kts 240°
2026-05-05 15:22 49.22465 -60.59649 33760 ft 444 kts 240°
2026-05-05 15:22 49.18831 -60.67281 33765 ft 443 kts 240°
2026-05-05 15:23 49.15201 -60.74885 33759 ft 443 kts 240°
2026-05-05 15:23 49.11568 -60.82473 33780 ft 442 kts 240°
2026-05-05 15:24 49.07936 -60.90037 33764 ft 442 kts 240°
2026-05-05 15:24 49.04302 -60.97584 33782 ft 441 kts 240°
2026-05-05 15:25 49.00668 -61.05112 33781 ft 441 kts 240°
2026-05-05 15:25 48.97029 -61.12624 33786 ft 440 kts 240°
2026-05-05 15:26 48.93390 -61.20120 33787 ft 440 kts 240°
2026-05-05 15:26 48.89746 -61.27604 33786 ft 440 kts 240°
2026-05-05 15:27 48.86124 -61.35023 33791 ft 440 kts 240°
2026-05-05 15:27 48.82467 -61.42491 33797 ft 441 kts 240°
2026-05-05 15:28 48.78809 -61.49943 33796 ft 441 kts 240°
2026-05-05 15:28 48.75139 -61.57396 33798 ft 441 kts 241°
2026-05-05 15:29 48.71461 -61.64845 33808 ft 441 kts 240°
2026-05-05 15:29 48.67779 -61.72282 33804 ft 442 kts 241°
2026-05-05 15:30 48.64084 -61.79723 33806 ft 442 kts 241°
2026-05-05 15:30 48.60385 -61.87155 33804 ft 443 kts 241°
2026-05-05 15:31 48.56675 -61.94586 33796 ft 443 kts 241°
2026-05-05 15:31 48.52962 -62.02004 33799 ft 443 kts 241°
2026-05-05 15:32 48.49243 -62.09410 33806 ft 442 kts 241°
2026-05-05 15:32 48.45526 -62.16792 33804 ft 442 kts 241°
2026-05-05 15:33 48.41803 -62.24170 33800 ft 442 kts 241°
2026-05-05 15:33 48.38073 -62.31541 33796 ft 443 kts 241°
2026-05-05 15:34 48.34338 -62.38901 33796 ft 442 kts 241°
2026-05-05 15:34 48.30598 -62.46250 33799 ft 442 kts 241°
2026-05-05 15:35 48.26855 -62.53584 33794 ft 442 kts 240°
2026-05-05 15:35 48.23109 -62.60906 33796 ft 442 kts 240°
2026-05-05 15:36 48.19997 -62.66973 33795 ft 442 kts 240°
2026-05-05 15:36 48.15637 -62.75451 33796 ft 442 kts 240°
2026-05-05 15:37 48.11886 -62.82725 33796 ft 442 kts 240°
2026-05-05 15:37 48.08735 -62.88818 33799 ft 441 kts 240°
2026-05-05 15:38 48.05000 -62.96025 33794 ft 441 kts 240°
2026-05-05 15:38 48.01214 -63.03309 33797 ft 441 kts 240°
2026-05-05 15:39 47.97446 -63.10538 33792 ft 441 kts 240°
2026-05-05 15:39 47.93675 -63.17759 33791 ft 441 kts 240°
2026-05-05 15:40 47.89918 -63.24932 33778 ft 442 kts 240°
2026-05-05 15:40 47.86129 -63.32144 33781 ft 442 kts 240°
2026-05-05 15:41 47.82335 -63.39345 33759 ft 442 kts 240°
2026-05-05 15:41 47.78538 -63.46532 33765 ft 442 kts 240°
2026-05-05 15:42 47.74744 -63.53697 33763 ft 441 kts 240°
2026-05-05 15:42 47.70948 -63.60850 33782 ft 441 kts 240°
2026-05-05 15:43 47.67145 -63.67994 33782 ft 440 kts 240°
2026-05-05 15:43 47.63347 -63.75113 33761 ft 440 kts 240°
2026-05-05 15:44 47.59540 -63.82229 33780 ft 440 kts 240°
2026-05-05 15:44 47.55726 -63.89338 33787 ft 441 kts 240°
2026-05-05 15:45 47.51909 -63.96433 33786 ft 441 kts 240°
2026-05-05 15:45 47.48081 -64.03533 33797 ft 441 kts 239°
2026-05-05 15:46 47.44254 -64.10610 33795 ft 441 kts 239°
2026-05-05 15:46 47.40427 -64.17670 33805 ft 440 kts 239°
2026-05-05 15:47 47.36603 -64.24708 33820 ft 439 kts 239°
2026-05-05 15:47 47.32776 -64.31732 33823 ft 439 kts 239°
2026-05-05 15:48 47.28945 -64.38747 33814 ft 440 kts 239°
2026-05-05 15:48 47.25108 -64.45752 33805 ft 440 kts 239°
2026-05-05 15:49 47.21261 -64.52760 33785 ft 440 kts 238°
2026-05-05 15:49 47.17433 -64.59715 33763 ft 440 kts 238°
2026-05-05 15:50 47.13580 -64.66695 33783 ft 440 kts 238°
2026-05-05 15:50 47.09722 -64.73668 33761 ft 440 kts 238°
2026-05-05 15:51 47.05864 -64.80622 33768 ft 439 kts 238°
2026-05-05 15:51 47.02002 -64.87565 33781 ft 439 kts 238°
2026-05-05 15:52 46.98140 -64.94495 33780 ft 439 kts 238°
2026-05-05 15:52 46.94275 -65.01411 33780 ft 439 kts 237°
2026-05-05 15:53 46.90400 -65.08325 33783 ft 439 kts 237°
2026-05-05 15:53 46.86523 -65.15228 33765 ft 439 kts 237°
2026-05-05 15:54 46.82643 -65.22120 33788 ft 439 kts 237°
2026-05-05 15:54 46.78758 -65.28999 33787 ft 439 kts 237°
2026-05-05 15:55 46.74871 -65.35865 33786 ft 439 kts 237°
2026-05-05 15:55 46.70981 -65.42724 33790 ft 439 kts 237°
2026-05-05 15:56 46.67113 -65.49522 33795 ft 439 kts 237°
2026-05-05 15:56 46.63216 -65.56357 33797 ft 439 kts 237°
2026-05-05 15:57 46.59307 -65.63195 33794 ft 440 kts 237°
2026-05-05 15:57 46.55392 -65.70028 33800 ft 440 kts 236°
2026-05-05 15:58 46.51468 -65.76860 33808 ft 441 kts 236°
2026-05-05 15:58 46.47535 -65.83687 33808 ft 441 kts 236°
2026-05-05 15:59 46.43597 -65.90509 33806 ft 441 kts 236°
2026-05-05 15:59 46.39653 -65.97325 33816 ft 441 kts 236°
2026-05-05 16:00 46.35705 -66.04127 33825 ft 441 kts 236°
2026-05-05 16:00 46.31752 -66.10924 33825 ft 441 kts 236°
2026-05-05 16:01 46.27796 -66.17706 33824 ft 441 kts 236°
2026-05-05 16:01 46.23841 -66.24475 33823 ft 441 kts 236°
2026-05-05 16:02 46.19874 -66.31245 33824 ft 441 kts 236°
2026-05-05 16:02 46.15910 -66.37994 33825 ft 441 kts 236°
2026-05-05 16:03 46.11938 -66.44740 33817 ft 441 kts 236°
2026-05-05 16:03 46.07965 -66.51472 33814 ft 441 kts 236°
2026-05-05 16:04 46.04020 -66.58138 33806 ft 440 kts 236°
2026-05-05 16:04 46.00048 -66.64834 33815 ft 440 kts 235°
2026-05-05 16:05 45.96073 -66.71520 33805 ft 440 kts 235°
2026-05-05 16:05 45.92091 -66.78201 33809 ft 441 kts 235°
2026-05-05 16:06 45.88093 -66.84894 33809 ft 442 kts 235°
2026-05-05 16:06 45.84083 -66.91594 33811 ft 444 kts 234°
2026-05-05 16:07 45.80051 -66.98311 33814 ft 445 kts 234°
2026-05-05 16:07 45.76010 -67.05026 33812 ft 445 kts 234°
2026-05-05 16:08 45.71962 -67.11734 33804 ft 445 kts 234°
2026-05-05 16:08 45.67916 -67.18423 33806 ft 444 kts 234°
2026-05-05 16:09 45.63898 -67.25052 33812 ft 444 kts 234°
2026-05-05 16:09 45.59862 -67.31699 33811 ft 443 kts 234°
2026-05-05 16:10 45.55822 -67.38330 33812 ft 442 kts 234°
2026-05-05 16:10 45.53415 -67.42274 33816 ft 441 kts 234°
2026-05-05 16:11 45.49385 -67.48867 33813 ft 441 kts 234°
2026-05-05 16:12 45.41313 -67.62028 33814 ft 441 kts 234°
2026-05-05 16:13 45.30723 -67.77739 33827 ft 449 kts 224°
2026-05-05 16:13 45.25819 -67.83225 33828 ft 450 kts 224°
2026-05-05 16:14 45.15999 -67.94288 33816 ft 451 kts 224°
2026-05-05 16:15 45.06152 -68.05384 33828 ft 452 kts 223°
2026-05-05 16:16 44.96291 -68.16438 33836 ft 452 kts 223°
2026-05-05 16:17 44.88895 -68.24701 33850 ft 452 kts 223°
2026-05-05 16:18 44.81497 -68.32937 33862 ft 452 kts 223°
2026-05-05 16:19 44.74110 -68.41134 33856 ft 453 kts 222°
2026-05-05 16:19 44.66665 -68.49364 33866 ft 454 kts 222°
2026-05-05 16:20 44.56710 -68.60326 33861 ft 455 kts 222°
2026-05-05 16:22 44.44209 -68.74026 33871 ft 455 kts 222°
2026-05-05 16:23 44.34262 -68.84871 33875 ft 454 kts 221°
2026-05-05 16:23 44.26782 -68.92996 33871 ft 454 kts 221°
2026-05-05 16:24 44.21801 -68.98392 33876 ft 453 kts 221°
2026-05-05 16:25 44.14346 -69.06444 33887 ft 451 kts 221°
2026-05-05 16:25 44.07735 -69.13559 33899 ft 451 kts 221°
2026-05-05 16:26 43.97814 -69.24207 33900 ft 450 kts 220°
2026-05-05 16:27 43.92847 -69.29519 33883 ft 451 kts 220°
2026-05-05 16:27 43.87875 -69.34826 33896 ft 452 kts 220°
2026-05-05 16:28 43.82889 -69.40135 33881 ft 452 kts 220°
2026-05-05 16:28 43.77901 -69.45435 33878 ft 452 kts 219°
2026-05-05 16:29 43.72911 -69.50724 33877 ft 452 kts 219°
2026-05-05 16:29 43.67921 -69.56003 33869 ft 452 kts 219°
2026-05-05 16:30 43.62930 -69.61273 33871 ft 451 kts 219°
2026-05-05 16:30 43.57942 -69.66528 33871 ft 451 kts 219°
2026-05-05 16:31 43.52985 -69.71737 33871 ft 451 kts 219°
2026-05-05 16:31 43.47964 -69.77003 33876 ft 451 kts 219°
2026-05-05 16:32 43.42972 -69.82229 33871 ft 451 kts 219°
2026-05-05 16:32 43.38011 -69.87411 33871 ft 451 kts 219°
2026-05-05 16:33 43.33009 -69.92625 33862 ft 452 kts 219°
2026-05-05 16:33 43.27961 -69.97875 33855 ft 452 kts 219°
2026-05-05 16:34 43.22976 -70.03050 33866 ft 452 kts 219°
2026-05-05 16:34 43.17960 -70.08244 33859 ft 452 kts 219°
2026-05-05 16:35 43.12949 -70.13423 33860 ft 451 kts 219°
2026-05-05 16:35 43.07934 -70.18594 33860 ft 451 kts 218°
2026-05-05 16:36 43.02922 -70.23751 33867 ft 451 kts 218°
2026-05-05 16:36 42.97910 -70.28899 33870 ft 451 kts 218°
2026-05-05 16:37 42.92888 -70.34046 33872 ft 451 kts 218°
2026-05-05 16:37 42.87865 -70.39182 33869 ft 452 kts 218°
2026-05-05 16:38 42.82833 -70.44320 33872 ft 453 kts 218°
2026-05-05 16:38 42.77782 -70.49464 33877 ft 453 kts 218°
2026-05-05 16:39 42.72731 -70.54598 33879 ft 454 kts 218°
2026-05-05 16:39 42.67665 -70.59735 33881 ft 455 kts 218°
2026-05-05 16:40 42.62592 -70.64869 33894 ft 455 kts 218°
2026-05-05 16:40 42.57510 -70.70002 33882 ft 455 kts 218°
2026-05-05 16:41 42.52431 -70.75122 33888 ft 455 kts 218°
2026-05-05 16:41 42.47345 -70.80236 33894 ft 455 kts 218°
2026-05-05 16:42 42.42266 -70.85334 33900 ft 454 kts 218°